Regional Weather Roundup
Issued by NWS

Home | Current Version | Previous Version | Graphics & Text | Print | Product List | Glossary On
Versions: 1 2 3 4 5 6 7 8 9 10 11 12 13 14 15 16 17 18 19 20 21 22 23 24 25 26 27 28 29 30 31 32 33 34 35 36 37 38 39 40 41 42 43 44 45 46 47 48 49 50
172
ASUS43 KLOT 301104
RWRIL

ILLINOIS REGIONAL WEATHER ROUNDUP
NATIONAL WEATHER SERVICE CHICAGO/ROMEOVILLE IL
600 AM CDT TUE MAY 30 2017

NOTE: "FAIR" INDICATES FEW OR NO CLOUDS BELOW 12,000 FEET WITH NO
SIGNIFICANT WEATHER AND/OR OBSTRUCTIONS TO VISIBILITY.

* THESE STATIONS ARE NOT UNDER NWS QUALITY CONTROL. THEY ALSO MAY NOT
  REPORT WEATHER SUCH AS PRECIPITATION OR FOG.

ILZ001-002-007-009-015-016-024-301200-
NORTHWEST ILLINOIS

CITY           SKY/WX    TMP DP  RH WIND       PRES   REMARKS
MOLINE         CLEAR     53  46  77 SW5       30.00R
STERLING*      CLEAR     52  48  86 W8        29.98R
SAVANNA*       CLEAR     55  47  75 W9        29.98R
$$

ILZ003-004-008-010-011-017-018-301200-
NORTH CENTRAL ILLINOIS

CITY           SKY/WX    TMP DP  RH WIND       PRES   REMARKS
ROCKFORD       PTCLDY    54  48  80 W7        29.97R
FREEPORT*      CLOUDY    52  47  83 W7        29.97R
ROCHELLE*      CLEAR     50  47  90 W7        29.97R
DE KALB*       CLEAR     53  47  81 W9        29.97R
PERU*          CLEAR     52  46  77 W8        29.99R
$$

ILZ005-006-012>014-019>023-301200-
NORTHEAST ILLINOIS

CITY           SKY/WX    TMP DP  RH WIND       PRES   REMARKS
CHICAGO-OHARE  PTCLDY    55  46  71 W8        29.93R
CHICAGO-MIDWAY PTCLDY    57  48  72 SW7       29.94R
AURORA         CLEAR     53  47  79 SW6       29.96R
LANSING*       CLEAR     53  49  85 W5        29.96R
JOLIET*        CLEAR     55  48  77 W5        29.97R
WAUKEGAN       CLEAR     53  49  86 SW3       29.92R
DUPAGE AIRPORT CLEAR     52  49  89 SW7       29.94R
KANKAKEE*      CLEAR     53  47  81 CALM      29.98R
WHEELING       CLEAR     56  48  74 W5        29.94R
MORRIS*        MOCLDY    54  47  78 CALM      29.96R
ROMEOVILLE*    CLEAR     53  50  88 W7        29.96R
NORTHERLY ISL    N/A     60  45  57 W6          N/A
$$

LMZ740>746-301200-
SOUTHERN LAKE MICHIGAN

STATION/POSITION SKY/WX   TEMP    WIND        PRES    VSBY  WAVE
                          AIR SEA DIR/SP/G                  HT/PER
                          (F)     (DEG/KT/KT) (MB)    (MI)  (FT/S)
WILMETTE HARBOR            55 53  250/  8/  8   N/A           1
HARRISON CRIB              60     270/ 11/ 13   N/A
BURNHAM HARBOR             60     270/  5/  9   N/A
CALUMET HARBOR             57     230/  4/  5 1013.3R
BURNS HARBOR               60     260/  8/ 11 1014.6R
MICHIGAN CITY              59     230/ 13/ 14   N/A
MICHIGAN CITY 6N           58 58  270/ 10/ 12   N/A           1/ 2
ST. JOSEPH                 58 59  260/ 10/ 12 1013.6R         1/ 2
$$

ILZ025>027-034>036-040-047-049-050-058-095>099-301200-
WEST-CENTRAL ILLINOIS

CITY           SKY/WX    TMP DP  RH WIND       PRES   REMARKS
QUINCY         CLEAR     52  46  80 SW5       30.04R
GALESBURG*     CLEAR     54  46  75 W5          N/A
MACOMB*        CLEAR     51  47  85 W5        30.05R
JACKSONVILLE*  CLEAR     55  48  79 W3        30.04R
PITTSFIELD*    CLEAR     58  48  67 W3        30.06R
$$

ILZ028>032-037-038-041>044-048-051>054-059>061-301200-
CENTRAL ILLINOIS

CITY           SKY/WX    TMP DP  RH WIND       PRES   REMARKS
PONTIAC        PTCLDY    55  50  83 W7        30.00R
BLOOMINGTON    CLEAR     55  45  68 W8        30.02R
DECATUR        PTCLDY    60  47  61 W7        30.01R
PEORIA         CLEAR     55  47  74 W3        30.01R
LACON*         CLEAR     55  47  75 W6        29.99R
LINCOLN*       CLEAR     58  47  67 CALM      30.02R
SPRINGFIELD    PTCLDY    59  49  69 W8        30.03R
TAYLORVILLE    PTCLDY    60  50  69 W7        30.02R
$$

ILZ033-039-045-046-055>057-062-063-301200-
EAST-CENTRAL ILLINOIS

CITY           SKY/WX    TMP DP  RH WIND       PRES   REMARKS
CHAMPAIGN      PTCLDY    55  48  77 SW7       30.00R
RANTOUL*       CLEAR     56  47  72 W6        29.99R
MATTOON        CLOUDY    62  49  62 W5        30.00R
PARIS*         PTCLDY    58  51  77 SW6       30.01R
$$

ILZ079-100>102-301200-
SOUTHWEST ILLINOIS

CITY           SKY/WX    TMP DP  RH WIND       PRES   REMARKS
ALTON          PTCLDY    56  53  92 CALM      30.05R
BELLEVILLE     PTCLDY    56  55  95 CALM      30.05R
CAHOKIA*       CLEAR     55  53  93 CALM      30.05R FOG
SPARTA*        PTCLDY    61  58  88 SW5       30.06R
$$

ILZ064>066-069>071-074>076-080>082-084>086-088>090-092>094-301200-
SOUTH-CENTRAL ILLINOIS

CITY           SKY/WX    TMP DP  RH WIND       PRES   REMARKS
CARBONDALE     PTCLDY    57  57 100 CALM      30.04R
CAIRO*         PTCLDY    63  62  96 CALM      30.03S
EFFINGHAM*     CLEAR     54  54 100 CALM      30.04R
MARION         CLEAR     61  59  94 CALM      30.05R
MT. VERNON       N/A     53  53 100 CALM      30.05R FOG
CENTRALIA*     CLEAR     56  56  99 CALM      30.03R
SALEM*         CLEAR     59  56  92 CALM      30.04R
METROPOLIS*    CLOUDY    61  60  99 CALM      30.04S FOG
$$

ILZ067-068-072-073-078-083-087-091-301200-
SOUTHEAST ILLINOIS

CITY           SKY/WX    TMP DP  RH WIND       PRES   REMARKS
LAWRENCEVILLE  CLEAR     58  56  93 NW6       30.02R
FLORA*         CLEAR     62  57  84 W6        30.04R
FAIRFIELD*     CLEAR     56  56 100 CALM      30.02R
HARRISBURG*    FOG       56  56 100 CALM      30.03S VSB<1/4
ROBINSON*      CLEAR     56  54  92 SW3       30.03R
CARMI*         CLEAR     57  57 100 CALM      30.02S FOG
$$

ABBREVIATIONS USED IN REMARKS
   TC - TEMPERATURE IN CELSIUS
  WCI - WIND CHILL INDEX
   HX - HEAT INDEX
  VSB - VISIBILITY
$$





USA.gov is the U.S. government's official web portal to all federal, state and local government web resources and services.